#datetime,building,power
2023-11-14T00:01:00,pkn,1.20
2023-11-14T00:03:00,pkn,2.40
2023-11-14T00:05:00,pkn,1.20
2023-11-14T00:06:00,pkn,1.20
2023-11-14T00:08:00,pkn,1.20
2023-11-14T00:10:00,pkn,2.40
2023-11-14T00:11:00,pkn,1.20
2023-11-14T00:13:00,pkn,1.20
2023-11-14T00:14:00,pkn,1.20
2023-11-14T00:17:00,pkn,2.40
2023-11-14T00:19:00,pkn,2.40
2023-11-14T00:20:00,pkn,6.00
2023-11-14T00:22:00,pkn,10.80
2023-11-14T00:24:00,pkn,9.60
2023-11-14T00:26:00,pkn,9.60
2023-11-14T00:28:00,pkn,9.60
2023-11-14T00:29:00,pkn,2.40
2023-11-14T00:31:00,pkn,2.40
2023-11-14T00:34:00,pkn,2.40
2023-11-14T00:36:00,pkn,2.40
2023-11-14T00:38:00,pkn,1.20
2023-11-14T00:40:00,pkn,2.40
2023-11-14T00:41:00,pkn,1.20
2023-11-14T00:43:00,pkn,1.20
2023-11-14T00:45:00,pkn,2.40
2023-11-14T00:47:00,pkn,1.20
2023-11-14T00:49:00,pkn,2.40
2023-11-14T00:50:00,pkn,1.20
2023-11-14T00:52:00,pkn,1.20
2023-11-14T00:54:00,pkn,2.40
2023-11-14T00:55:00,pkn,1.20
2023-11-14T00:57:00,pkn,1.20
2023-11-14T00:59:00,pkn,2.40
2023-11-14T01:01:00,pkn,1.20
2023-11-14T01:02:00,pkn,1.20
2023-11-14T01:03:00,pkn,4.80
2023-11-14T01:05:00,pkn,10.80
2023-11-14T01:06:00,pkn,4.80
2023-11-14T01:08:00,pkn,10.80
2023-11-14T01:10:00,pkn,8.40
2023-11-14T01:12:00,pkn,1.20
2023-11-14T01:13:00,pkn,1.20
2023-11-14T01:15:00,pkn,1.20
2023-11-14T01:17:00,pkn,2.40
2023-11-14T01:19:00,pkn,1.20
2023-11-14T01:21:00,pkn,1.20
2023-11-14T01:23:00,pkn,2.40
2023-11-14T01:25:00,pkn,1.20
2023-11-14T01:27:00,pkn,2.40
2023-11-14T01:29:00,pkn,1.20
2023-11-14T01:31:00,pkn,2.40
2023-11-14T01:32:00,pkn,1.20
2023-11-14T01:34:00,pkn,1.20
2023-11-14T01:36:00,pkn,1.20
2023-11-14T01:38:00,pkn,2.40
2023-11-14T01:41:00,pkn,2.40
2023-11-14T01:43:00,pkn,1.20
2023-11-14T01:45:00,pkn,1.20
2023-11-14T01:47:00,pkn,2.40
2023-11-14T01:50:00,pkn,2.40
2023-11-14T01:52:00,pkn,1.20
2023-11-14T01:54:00,pkn,1.20
2023-11-14T01:55:00,pkn,1.20
2023-11-14T01:57:00,pkn,10.80
2023-11-14T01:59:00,pkn,9.60
2023-11-14T02:01:00,pkn,10.80
2023-11-14T02:03:00,pkn,6.00
2023-11-14T02:05:00,pkn,2.40
2023-11-14T02:07:00,pkn,2.40
2023-11-14T02:10:00,pkn,2.40
2023-11-14T02:12:00,pkn,2.40
2023-11-14T02:14:00,pkn,2.40
2023-11-14T02:16:00,pkn,1.20
2023-11-14T02:18:00,pkn,2.40
2023-11-14T02:20:00,pkn,1.20
2023-11-14T02:21:00,pkn,1.20
2023-11-14T02:22:00,pkn,1.20
2023-11-14T02:24:00,pkn,1.20
2023-11-14T02:26:00,pkn,2.40
2023-11-14T02:28:00,pkn,1.20
2023-11-14T02:30:00,pkn,1.20
2023-11-14T02:32:00,pkn,2.40
2023-11-14T02:34:00,pkn,1.20
2023-11-14T02:36:00,pkn,2.40
2023-11-14T02:38:00,pkn,1.20
2023-11-14T02:39:00,pkn,1.20
2023-11-14T02:41:00,pkn,1.20
2023-11-14T02:42:00,pkn,1.20
2023-11-14T02:44:00,pkn,1.20
2023-11-14T02:46:00,pkn,2.40
2023-11-14T02:47:00,pkn,1.20
2023-11-14T02:49:00,pkn,1.20
2023-11-14T02:51:00,pkn,1.20
2023-11-14T02:53:00,pkn,2.40
2023-11-14T02:55:00,pkn,2.40
2023-11-14T02:56:00,pkn,1.20
2023-11-14T02:58:00,pkn,1.20
2023-11-14T02:59:00,pkn,1.20
2023-11-14T03:00:00,pkn,1.20
2023-11-14T03:02:00,pkn,1.20
2023-11-14T03:04:00,pkn,2.40
2023-11-14T03:05:00,pkn,1.20
2023-11-14T03:07:00,pkn,1.20
2023-11-14T03:09:00,pkn,2.40
2023-11-14T03:10:00,pkn,2.40
2023-11-14T03:12:00,pkn,9.60
2023-11-14T03:13:00,pkn,6.00
2023-11-14T03:15:00,pkn,9.60
2023-11-14T03:17:00,pkn,9.60
2023-11-14T03:19:00,pkn,1.20
2023-11-14T03:20:00,pkn,1.20
2023-11-14T03:22:00,pkn,1.20
2023-11-14T03:23:00,pkn,1.20
2023-11-14T03:24:00,pkn,1.20
2023-11-14T03:26:00,pkn,1.20
2023-11-14T03:27:00,pkn,1.20
2023-11-14T03:29:00,pkn,1.20
2023-11-14T03:30:00,pkn,1.20
2023-11-14T03:32:00,pkn,1.20
2023-11-14T03:33:00,pkn,1.20
2023-11-14T03:35:00,pkn,2.40
2023-11-14T03:37:00,pkn,2.40
2023-11-14T03:39:00,pkn,1.20
2023-11-14T03:40:00,pkn,1.20
2023-11-14T03:42:00,pkn,2.40
2023-11-14T03:43:00,pkn,1.20
2023-11-14T03:45:00,pkn,1.20
2023-11-14T03:47:00,pkn,2.40
2023-11-14T03:49:00,pkn,1.20
2023-11-14T03:50:00,pkn,1.20
2023-11-14T03:52:00,pkn,2.40
2023-11-14T03:53:00,pkn,1.20
2023-11-14T03:56:00,pkn,2.40
2023-11-14T03:58:00,pkn,1.20
2023-11-14T04:00:00,pkn,2.40
2023-11-14T04:03:00,pkn,2.40
2023-11-14T04:05:00,pkn,1.20
2023-11-14T04:06:00,pkn,1.20
2023-11-14T04:08:00,pkn,1.20
2023-11-14T04:10:00,pkn,2.40
2023-11-14T04:12:00,pkn,1.20
2023-11-14T04:14:00,pkn,1.20
2023-11-14T04:16:00,pkn,2.40
2023-11-14T04:18:00,pkn,2.40
2023-11-14T04:20:00,pkn,1.20
2023-11-14T04:22:00,pkn,2.40
2023-11-14T04:24:00,pkn,1.20
2023-11-14T04:25:00,pkn,1.20
2023-11-14T04:27:00,pkn,2.40
2023-11-14T04:28:00,pkn,1.20
2023-11-14T04:30:00,pkn,1.20
2023-11-14T04:33:00,pkn,2.40
2023-11-14T04:35:00,pkn,1.20
2023-11-14T04:37:00,pkn,1.20
2023-11-14T04:39:00,pkn,2.40
2023-11-14T04:41:00,pkn,1.20
2023-11-14T04:43:00,pkn,1.20
2023-11-14T04:45:00,pkn,2.40
2023-11-14T04:47:00,pkn,1.20
2023-11-14T04:49:00,pkn,1.20
2023-11-14T04:50:00,pkn,1.20
2023-11-14T04:51:00,pkn,3.60
2023-11-14T04:52:00,pkn,1.20
2023-11-14T04:53:00,pkn,8.40
2023-11-14T04:54:00,pkn,1.20
2023-11-14T04:55:00,pkn,9.60
2023-11-14T04:56:00,pkn,3.60
2023-11-14T04:58:00,pkn,10.80
2023-11-14T05:00:00,pkn,3.60
2023-11-14T05:01:00,pkn,1.20
2023-11-14T05:03:00,pkn,2.40
2023-11-14T05:05:00,pkn,1.20
2023-11-14T05:06:00,pkn,1.20
2023-11-14T05:09:00,pkn,2.40
2023-11-14T05:10:00,pkn,1.20
2023-11-14T05:12:00,pkn,1.20
2023-11-14T05:14:00,pkn,1.20
2023-11-14T05:16:00,pkn,2.40
2023-11-14T05:17:00,pkn,1.20
2023-11-14T05:19:00,pkn,1.20
2023-11-14T05:21:00,pkn,2.40
2023-11-14T05:23:00,pkn,1.20
2023-11-14T05:25:00,pkn,2.40
2023-11-14T05:27:00,pkn,1.20
2023-11-14T05:29:00,pkn,2.40
2023-11-14T05:32:00,pkn,2.40
2023-11-14T05:35:00,pkn,2.40
2023-11-14T05:37:00,pkn,1.20
2023-11-14T05:38:00,pkn,1.20
2023-11-14T05:41:00,pkn,2.40
2023-11-14T05:44:00,pkn,2.40
2023-11-14T05:46:00,pkn,1.20
2023-11-14T05:48:00,pkn,2.40
2023-11-14T05:50:00,pkn,1.20
2023-11-14T05:52:00,pkn,2.40
2023-11-14T05:54:00,pkn,1.20
2023-11-14T05:56:00,pkn,1.20
2023-11-14T05:58:00,pkn,1.20
2023-11-14T05:59:00,pkn,1.20
2023-11-14T06:01:00,pkn,1.20
2023-11-14T06:02:00,pkn,1.20
2023-11-14T06:04:00,pkn,1.20
2023-11-14T06:05:00,pkn,1.20
2023-11-14T06:07:00,pkn,1.20
2023-11-14T06:08:00,pkn,1.20
2023-11-14T06:10:00,pkn,1.20
2023-11-14T06:11:00,pkn,1.20
2023-11-14T06:14:00,pkn,1.20
2023-11-14T06:16:00,pkn,2.40
2023-11-14T06:18:00,pkn,1.20
2023-11-14T06:20:00,pkn,1.20
2023-11-14T06:22:00,pkn,1.20
2023-11-14T06:24:00,pkn,2.40
2023-11-14T06:26:00,pkn,1.20
2023-11-14T06:28:00,pkn,2.40
2023-11-14T06:30:00,pkn,1.20
2023-11-14T06:31:00,pkn,1.20
2023-11-14T06:32:00,pkn,1.20
2023-11-14T06:34:00,pkn,7.20
2023-11-14T06:35:00,pkn,1.20
2023-11-14T06:36:00,pkn,9.60
2023-11-14T06:38:00,pkn,9.60
2023-11-14T06:40:00,pkn,10.80
2023-11-14T06:42:00,pkn,8.40
2023-11-14T06:43:00,pkn,6.00
2023-11-14T06:45:00,pkn,8.40
2023-11-14T06:46:00,pkn,1.20
2023-11-14T06:48:00,pkn,1.20
2023-11-14T06:50:00,pkn,2.40
2023-11-14T06:51:00,pkn,1.20
2023-11-14T06:53:00,pkn,1.20
2023-11-14T06:54:00,pkn,1.20
2023-11-14T06:56:00,pkn,1.20
2023-11-14T06:57:00,pkn,1.20
2023-11-14T06:59:00,pkn,1.20
2023-11-14T07:00:00,pkn,1.20
2023-11-14T07:02:00,pkn,1.20
2023-11-14T07:04:00,pkn,1.20
2023-11-14T07:06:00,pkn,2.40
2023-11-14T07:08:00,pkn,1.20
2023-11-14T07:10:00,pkn,2.40
2023-11-14T07:11:00,pkn,6.00
2023-11-14T07:13:00,pkn,10.80
2023-11-14T07:15:00,pkn,9.60
2023-11-14T07:16:00,pkn,4.80
2023-11-14T07:18:00,pkn,9.60
2023-11-14T07:19:00,pkn,1.20
2023-11-14T07:21:00,pkn,1.20
2023-11-14T07:23:00,pkn,1.20
2023-11-14T07:24:00,pkn,1.20
2023-11-14T07:26:00,pkn,1.20
2023-11-14T07:27:00,pkn,1.20
2023-11-14T07:29:00,pkn,1.20
2023-11-14T07:30:00,pkn,1.20
2023-11-14T07:32:00,pkn,1.20
2023-11-14T07:34:00,pkn,1.20
2023-11-14T07:35:00,pkn,1.20
2023-11-14T07:37:00,pkn,1.20
2023-11-14T07:39:00,pkn,1.20
2023-11-14T07:41:00,pkn,1.20
2023-11-14T07:43:00,pkn,1.20
2023-11-14T07:45:00,pkn,2.40
2023-11-14T07:47:00,pkn,1.20
2023-11-14T07:49:00,pkn,2.40
2023-11-14T07:51:00,pkn,2.40
2023-11-14T07:53:00,pkn,1.20
2023-11-14T07:55:00,pkn,2.40
2023-11-14T07:57:00,pkn,1.20
2023-11-14T07:58:00,pkn,1.20
2023-11-14T07:59:00,pkn,2.40
2023-11-14T08:00:00,pkn,1.20
2023-11-14T08:01:00,pkn,8.40
2023-11-14T08:02:00,pkn,6.00
2023-11-14T08:04:00,pkn,8.40
2023-11-14T08:05:00,pkn,4.80
2023-11-14T08:07:00,pkn,6.00
2023-11-14T08:09:00,pkn,1.20
2023-11-14T08:11:00,pkn,2.40
2023-11-14T08:14:00,pkn,2.40
2023-11-14T08:15:00,pkn,1.20
2023-11-14T08:16:00,pkn,1.20
2023-11-14T08:18:00,pkn,1.20
2023-11-14T08:20:00,pkn,2.40
2023-11-14T08:23:00,pkn,2.40
2023-11-14T08:25:00,pkn,1.20
2023-11-14T08:26:00,pkn,1.20
2023-11-14T08:28:00,pkn,2.40
2023-11-14T08:29:00,pkn,1.20
2023-11-14T08:30:00,pkn,1.20
2023-11-14T08:32:00,pkn,2.40
2023-11-14T08:35:00,pkn,2.40
2023-11-14T08:36:00,pkn,1.20
2023-11-14T08:37:00,pkn,1.20
2023-11-14T08:39:00,pkn,8.40
2023-11-14T08:41:00,pkn,8.40
2023-11-14T08:42:00,pkn,6.00
2023-11-14T08:44:00,pkn,8.40
2023-11-14T08:45:00,pkn,6.00
2023-11-14T08:46:00,pkn,3.60
2023-11-14T08:48:00,pkn,9.60
2023-11-14T08:50:00,pkn,9.60
2023-11-14T08:52:00,pkn,9.60
2023-11-14T08:53:00,pkn,4.80
2023-11-14T08:55:00,pkn,1.20
2023-11-14T08:57:00,pkn,1.20
2023-11-14T08:58:00,pkn,1.20
2023-11-14T09:01:00,pkn,2.40
2023-11-14T09:03:00,pkn,1.20
2023-11-14T09:05:00,pkn,1.20
2023-11-14T09:07:00,pkn,1.20
2023-11-14T09:08:00,pkn,1.20
2023-11-14T09:10:00,pkn,1.20
2023-11-14T09:11:00,pkn,1.20
2023-11-14T09:13:00,pkn,1.20
2023-11-14T09:15:00,pkn,3.60
2023-11-14T09:16:00,pkn,3.60
2023-11-14T09:17:00,pkn,4.80
2023-11-14T09:18:00,pkn,6.00
2023-11-14T09:20:00,pkn,8.40
2023-11-14T09:21:00,pkn,6.00
2023-11-14T09:23:00,pkn,8.40
2023-11-14T09:25:00,pkn,10.80
2023-11-14T09:27:00,pkn,9.60
2023-11-14T09:28:00,pkn,4.80
2023-11-14T09:30:00,pkn,7.20
2023-11-14T09:31:00,pkn,1.20
2023-11-14T09:33:00,pkn,1.20
2023-11-14T09:35:00,pkn,2.40
2023-11-14T09:37:00,pkn,1.20
2023-11-14T09:38:00,pkn,1.20
2023-11-14T09:40:00,pkn,2.40
2023-11-14T09:41:00,pkn,1.20
2023-11-14T09:42:00,pkn,1.20
2023-11-14T09:43:00,pkn,1.20
2023-11-14T09:45:00,pkn,1.20
2023-11-14T09:47:00,pkn,2.40
2023-11-14T09:50:00,pkn,10.80
2023-11-14T09:51:00,pkn,1.20
2023-11-14T09:52:00,pkn,7.20
2023-11-14T09:53:00,pkn,8.40
2023-11-14T09:55:00,pkn,9.60
2023-11-14T09:57:00,pkn,10.80
2023-11-14T09:58:00,pkn,3.60
2023-11-14T10:00:00,pkn,10.80
2023-11-14T10:02:00,pkn,2.40
2023-11-14T10:03:00,pkn,1.20
2023-11-14T10:05:00,pkn,1.20
2023-11-14T10:06:00,pkn,1.20
2023-11-14T10:07:00,pkn,1.20
2023-11-14T10:10:00,pkn,2.40
2023-11-14T10:11:00,pkn,1.20
2023-11-14T10:12:00,pkn,1.20
2023-11-14T10:14:00,pkn,1.20
2023-11-14T10:15:00,pkn,1.20
2023-11-14T10:16:00,pkn,1.20
2023-11-14T10:18:00,pkn,1.20
2023-11-14T10:19:00,pkn,1.20
2023-11-14T10:21:00,pkn,2.40
2023-11-14T10:23:00,pkn,1.20
2023-11-14T10:25:00,pkn,1.20
2023-11-14T10:27:00,pkn,7.20
2023-11-14T10:28:00,pkn,4.80
2023-11-14T10:30:00,pkn,9.60
2023-11-14T10:32:00,pkn,10.80
2023-11-14T10:33:00,pkn,6.00
2023-11-14T10:35:00,pkn,7.20
2023-11-14T10:37:00,pkn,4.80
2023-11-14T10:38:00,pkn,1.20
2023-11-14T10:40:00,pkn,1.20
2023-11-14T10:41:00,pkn,1.20
2023-11-14T10:42:00,pkn,1.20
2023-11-14T10:43:00,pkn,1.20
2023-11-14T10:45:00,pkn,2.40
2023-11-14T10:46:00,pkn,1.20
2023-11-14T10:48:00,pkn,9.60
2023-11-14T10:50:00,pkn,9.60
2023-11-14T10:52:00,pkn,9.60
2023-11-14T10:53:00,pkn,4.80
2023-11-14T10:55:00,pkn,9.60
2023-11-14T10:57:00,pkn,10.80
2023-11-14T10:58:00,pkn,1.20
2023-11-14T11:00:00,pkn,2.40
2023-11-14T11:02:00,pkn,1.20
2023-11-14T11:03:00,pkn,1.20
2023-11-14T11:05:00,pkn,1.20
2023-11-14T11:06:00,pkn,1.20
2023-11-14T11:08:00,pkn,1.20
2023-11-14T11:10:00,pkn,1.20
2023-11-14T11:12:00,pkn,2.40
2023-11-14T11:15:00,pkn,2.40
2023-11-14T11:17:00,pkn,1.20
2023-11-14T11:18:00,pkn,1.20
2023-11-14T11:20:00,pkn,2.40
2023-11-14T11:22:00,pkn,1.20
2023-11-14T11:23:00,pkn,1.20
2023-11-14T11:25:00,pkn,9.60
2023-11-14T11:27:00,pkn,9.60
2023-11-14T11:28:00,pkn,4.80
2023-11-14T11:30:00,pkn,10.80
2023-11-14T11:31:00,pkn,3.60
2023-11-14T11:32:00,pkn,2.40
2023-11-14T11:33:00,pkn,1.20
2023-11-14T11:35:00,pkn,2.40
2023-11-14T11:37:00,pkn,1.20
2023-11-14T11:38:00,pkn,1.20
2023-11-14T11:40:00,pkn,1.20
2023-11-14T11:42:00,pkn,2.40
2023-11-14T11:45:00,pkn,2.40
2023-11-14T11:46:00,pkn,1.20
2023-11-14T11:48:00,pkn,1.20
2023-11-14T11:50:00,pkn,1.20
2023-11-14T11:52:00,pkn,2.40
2023-11-14T11:53:00,pkn,1.20
2023-11-14T11:55:00,pkn,1.20
2023-11-14T11:57:00,pkn,1.20
2023-11-14T11:58:00,pkn,1.20
2023-11-14T12:00:00,pkn,1.20
2023-11-14T12:02:00,pkn,2.40
2023-11-14T12:05:00,pkn,2.40
2023-11-14T12:07:00,pkn,1.20
2023-11-14T12:08:00,pkn,1.20
2023-11-14T12:10:00,pkn,2.40
2023-11-14T12:11:00,pkn,1.20
2023-11-14T12:13:00,pkn,1.20
2023-11-14T12:14:00,pkn,1.20
2023-11-14T12:15:00,pkn,4.80
2023-11-14T12:16:00,pkn,4.80
2023-11-14T12:18:00,pkn,9.60
2023-11-14T12:20:00,pkn,10.80
2023-11-14T12:22:00,pkn,8.40
2023-11-14T12:24:00,pkn,6.00
2023-11-14T12:27:00,pkn,2.40
2023-11-14T12:28:00,pkn,1.20
2023-11-14T12:30:00,pkn,1.20
2023-11-14T12:31:00,pkn,1.20
2023-11-14T12:33:00,pkn,1.20
2023-11-14T12:35:00,pkn,1.20
2023-11-14T12:37:00,pkn,2.40
2023-11-14T12:39:00,pkn,1.20
2023-11-14T12:41:00,pkn,1.20
2023-11-14T12:43:00,pkn,2.40
2023-11-14T12:46:00,pkn,2.40
2023-11-14T12:48:00,pkn,1.20
2023-11-14T12:50:00,pkn,2.40
2023-11-14T12:52:00,pkn,1.20
2023-11-14T12:54:00,pkn,2.40
2023-11-14T12:56:00,pkn,2.40
2023-11-14T12:58:00,pkn,1.20
2023-11-14T13:00:00,pkn,1.20
2023-11-14T13:02:00,pkn,2.40
2023-11-14T13:03:00,pkn,1.20
2023-11-14T13:05:00,pkn,1.20
2023-11-14T13:06:00,pkn,1.20
2023-11-14T13:07:00,pkn,1.20
2023-11-14T13:09:00,pkn,2.40
2023-11-14T13:10:00,pkn,1.20
2023-11-14T13:12:00,pkn,2.40
2023-11-14T13:13:00,pkn,1.20
2023-11-14T13:15:00,pkn,2.40
2023-11-14T13:17:00,pkn,1.20
2023-11-14T13:18:00,pkn,1.20
2023-11-14T13:20:00,pkn,2.40
2023-11-14T13:22:00,pkn,1.20
2023-11-14T13:23:00,pkn,1.20
2023-11-14T13:25:00,pkn,2.40
2023-11-14T13:28:00,pkn,2.40
2023-11-14T13:30:00,pkn,9.60
2023-11-14T13:31:00,pkn,4.80
2023-11-14T13:33:00,pkn,10.80
2023-11-14T13:35:00,pkn,9.60
2023-11-14T13:36:00,pkn,3.60
2023-11-14T13:38:00,pkn,2.40
2023-11-14T13:40:00,pkn,1.20
2023-11-14T13:42:00,pkn,1.20
2023-11-14T13:43:00,pkn,1.20
2023-11-14T13:45:00,pkn,2.40
2023-11-14T13:48:00,pkn,2.40
2023-11-14T13:50:00,pkn,1.20
2023-11-14T13:52:00,pkn,2.40
2023-11-14T13:55:00,pkn,2.40
2023-11-14T13:57:00,pkn,1.20
2023-11-14T13:58:00,pkn,1.20
2023-11-14T14:00:00,pkn,1.20
2023-11-14T14:02:00,pkn,2.40
2023-11-14T14:03:00,pkn,1.20
2023-11-14T14:05:00,pkn,1.20
2023-11-14T14:06:00,pkn,1.20
2023-11-14T14:07:00,pkn,1.20
2023-11-14T14:09:00,pkn,1.20
2023-11-14T14:11:00,pkn,2.40
2023-11-14T14:13:00,pkn,2.40
2023-11-14T14:14:00,pkn,1.20
2023-11-14T14:16:00,pkn,2.40
2023-11-14T14:18:00,pkn,1.20
2023-11-14T14:20:00,pkn,2.40
2023-11-14T14:21:00,pkn,1.20
2023-11-14T14:23:00,pkn,2.40
2023-11-14T14:25:00,pkn,1.20
2023-11-14T14:26:00,pkn,4.80
2023-11-14T14:28:00,pkn,10.80
2023-11-14T14:29:00,pkn,3.60
2023-11-14T14:30:00,pkn,2.40
2023-11-14T14:31:00,pkn,8.40
2023-11-14T14:33:00,pkn,10.80
2023-11-14T14:35:00,pkn,7.20
2023-11-14T14:37:00,pkn,2.40
2023-11-14T14:38:00,pkn,1.20
2023-11-14T14:40:00,pkn,1.20
2023-11-14T14:42:00,pkn,2.40
2023-11-14T14:45:00,pkn,2.40
2023-11-14T14:46:00,pkn,1.20
2023-11-14T14:48:00,pkn,2.40
2023-11-14T14:50:00,pkn,1.20
2023-11-14T14:51:00,pkn,1.20
2023-11-14T14:53:00,pkn,2.40
2023-11-14T14:55:00,pkn,2.40
2023-11-14T14:57:00,pkn,2.40
2023-11-14T14:58:00,pkn,1.20
2023-11-14T15:00:00,pkn,2.40
2023-11-14T15:02:00,pkn,2.40
2023-11-14T15:03:00,pkn,1.20
2023-11-14T15:05:00,pkn,1.20
2023-11-14T15:06:00,pkn,1.20
2023-11-14T15:08:00,pkn,1.20
2023-11-14T15:10:00,pkn,2.40
2023-11-14T15:12:00,pkn,2.40
2023-11-14T15:13:00,pkn,1.20
2023-11-14T15:15:00,pkn,1.20
2023-11-14T15:17:00,pkn,2.40
2023-11-14T15:18:00,pkn,1.20
2023-11-14T15:20:00,pkn,1.20
2023-11-14T15:22:00,pkn,2.40
2023-11-14T15:23:00,pkn,1.20
2023-11-14T15:25:00,pkn,1.20
2023-11-14T15:26:00,pkn,1.20
2023-11-14T15:28:00,pkn,2.40
2023-11-14T15:30:00,pkn,1.20
2023-11-14T15:31:00,pkn,1.20
2023-11-14T15:33:00,pkn,1.20
2023-11-14T15:35:00,pkn,2.40
2023-11-14T15:37:00,pkn,2.40
2023-11-14T15:38:00,pkn,1.20
2023-11-14T15:40:00,pkn,2.40
2023-11-14T15:41:00,pkn,1.20
2023-11-14T15:43:00,pkn,1.20
2023-11-14T15:45:00,pkn,2.40
2023-11-14T15:46:00,pkn,1.20
2023-11-14T15:48:00,pkn,1.20
2023-11-14T15:50:00,pkn,8.40
2023-11-14T15:52:00,pkn,8.40
2023-11-14T15:53:00,pkn,6.00
2023-11-14T15:55:00,pkn,9.60
2023-11-14T15:57:00,pkn,6.00
2023-11-14T15:58:00,pkn,1.20
2023-11-14T16:00:00,pkn,2.40
2023-11-14T16:02:00,pkn,1.20
2023-11-14T16:03:00,pkn,1.20
2023-11-14T16:05:00,pkn,2.40
2023-11-14T16:06:00,pkn,1.20
2023-11-14T16:08:00,pkn,1.20
2023-11-14T16:10:00,pkn,2.40
2023-11-14T16:12:00,pkn,1.20
2023-11-14T16:13:00,pkn,1.20
2023-11-14T16:15:00,pkn,2.40
2023-11-14T16:17:00,pkn,1.20
2023-11-14T16:18:00,pkn,1.20
2023-11-14T16:20:00,pkn,2.40
2023-11-14T16:21:00,pkn,1.20
2023-11-14T16:22:00,pkn,1.20
2023-11-14T16:23:00,pkn,1.20
2023-11-14T16:25:00,pkn,1.20
2023-11-14T16:27:00,pkn,2.40
2023-11-14T16:28:00,pkn,1.20
2023-11-14T16:30:00,pkn,1.20
2023-11-14T16:31:00,pkn,1.20
2023-11-14T16:33:00,pkn,1.20
2023-11-14T16:35:00,pkn,2.40
2023-11-14T16:38:00,pkn,2.40
2023-11-14T16:40:00,pkn,1.20
2023-11-14T16:41:00,pkn,1.20
2023-11-14T16:43:00,pkn,1.20
2023-11-14T16:45:00,pkn,2.40
2023-11-14T16:47:00,pkn,1.20
2023-11-14T16:48:00,pkn,1.20
2023-11-14T16:50:00,pkn,1.20
2023-11-14T16:52:00,pkn,2.40
2023-11-14T16:55:00,pkn,2.40
2023-11-14T16:56:00,pkn,1.20
2023-11-14T16:58:00,pkn,2.40
2023-11-14T17:00:00,pkn,1.20
2023-11-14T17:02:00,pkn,2.40
2023-11-14T17:03:00,pkn,1.20
2023-11-14T17:05:00,pkn,2.40
2023-11-14T17:07:00,pkn,2.40
2023-11-14T17:10:00,pkn,2.40
2023-11-14T17:13:00,pkn,2.40
2023-11-14T17:15:00,pkn,1.20
2023-11-14T17:17:00,pkn,2.40
2023-11-14T17:18:00,pkn,1.20
2023-11-14T17:20:00,pkn,1.20
2023-11-14T17:22:00,pkn,2.40
2023-11-14T17:25:00,pkn,2.40
2023-11-14T17:27:00,pkn,3.60
2023-11-14T17:28:00,pkn,4.80
2023-11-14T17:30:00,pkn,9.60
2023-11-14T17:32:00,pkn,10.80
2023-11-14T17:33:00,pkn,4.80
2023-11-14T17:35:00,pkn,10.80
2023-11-14T17:37:00,pkn,8.40
2023-11-14T17:38:00,pkn,1.20
2023-11-14T17:40:00,pkn,3.60
2023-11-14T17:42:00,pkn,1.20
2023-11-14T17:43:00,pkn,1.20
2023-11-14T17:45:00,pkn,2.40
2023-11-14T17:46:00,pkn,1.20
2023-11-14T17:48:00,pkn,2.40
2023-11-14T17:50:00,pkn,2.40
2023-11-14T17:51:00,pkn,1.20
2023-11-14T17:53:00,pkn,2.40
2023-11-14T17:55:00,pkn,2.40
2023-11-14T17:57:00,pkn,3.60
2023-11-14T17:58:00,pkn,1.20
2023-11-14T18:00:00,pkn,3.60
2023-11-14T18:02:00,pkn,1.20
2023-11-14T18:03:00,pkn,1.20
2023-11-14T18:05:00,pkn,2.40
2023-11-14T18:07:00,pkn,2.40
2023-11-14T18:08:00,pkn,1.20
2023-11-14T18:10:00,pkn,2.40
2023-11-14T18:12:00,pkn,1.20
2023-11-14T18:13:00,pkn,1.20
2023-11-14T18:15:00,pkn,8.40
2023-11-14T18:16:00,pkn,4.80
2023-11-14T18:17:00,pkn,4.80
2023-11-14T18:18:00,pkn,6.00
2023-11-14T18:20:00,pkn,9.60
2023-11-14T18:21:00,pkn,4.80
2023-11-14T18:22:00,pkn,6.00
2023-11-14T18:23:00,pkn,4.80
2023-11-14T18:25:00,pkn,6.00
2023-11-14T18:26:00,pkn,1.20
2023-11-14T18:28:00,pkn,2.40
2023-11-14T18:30:00,pkn,1.20
2023-11-14T18:32:00,pkn,3.60
2023-11-14T18:33:00,pkn,1.20
2023-11-14T18:35:00,pkn,2.40
2023-11-14T18:36:00,pkn,1.20
2023-11-14T18:37:00,pkn,1.20
2023-11-14T18:39:00,pkn,2.40
2023-11-14T18:40:00,pkn,1.20
2023-11-14T18:42:00,pkn,2.40
2023-11-14T18:43:00,pkn,1.20
2023-11-14T18:45:00,pkn,1.20
2023-11-14T18:47:00,pkn,2.40
2023-11-14T18:48:00,pkn,1.20
2023-11-14T18:49:00,pkn,1.20
2023-11-14T18:51:00,pkn,1.20
2023-11-14T18:52:00,pkn,1.20
2023-11-14T18:53:00,pkn,1.20
2023-11-14T18:55:00,pkn,2.40
2023-11-14T18:57:00,pkn,2.40
2023-11-14T18:58:00,pkn,1.20
2023-11-14T19:00:00,pkn,2.40
2023-11-14T19:02:00,pkn,2.40
2023-11-14T19:05:00,pkn,3.60
2023-11-14T19:06:00,pkn,1.20
2023-11-14T19:08:00,pkn,1.20
2023-11-14T19:10:00,pkn,4.80
2023-11-14T19:12:00,pkn,9.60
2023-11-14T19:14:00,pkn,10.80
2023-11-14T19:16:00,pkn,9.60
2023-11-14T19:17:00,pkn,4.80
2023-11-14T19:18:00,pkn,1.20
2023-11-14T19:19:00,pkn,1.20
2023-11-14T19:20:00,pkn,2.40
2023-11-14T19:23:00,pkn,2.40
2023-11-14T19:25:00,pkn,2.40
2023-11-14T19:26:00,pkn,1.20
2023-11-14T19:28:00,pkn,1.20
2023-11-14T19:30:00,pkn,2.40
2023-11-14T19:32:00,pkn,1.20
2023-11-14T19:34:00,pkn,2.40
2023-11-14T19:35:00,pkn,1.20
2023-11-14T19:38:00,pkn,2.40
2023-11-14T19:39:00,pkn,1.20
2023-11-14T19:41:00,pkn,1.20
2023-11-14T19:42:00,pkn,1.20
2023-11-14T19:44:00,pkn,2.40
2023-11-14T19:46:00,pkn,2.40
2023-11-14T19:48:00,pkn,2.40
2023-11-14T19:50:00,pkn,1.20
2023-11-14T19:51:00,pkn,1.20
2023-11-14T19:53:00,pkn,2.40
2023-11-14T19:55:00,pkn,1.20
2023-11-14T19:57:00,pkn,2.40
2023-11-14T19:58:00,pkn,1.20
2023-11-14T20:00:00,pkn,2.40
2023-11-14T20:03:00,pkn,2.40
2023-11-14T20:05:00,pkn,2.40
2023-11-14T20:07:00,pkn,2.40
2023-11-14T20:08:00,pkn,1.20
2023-11-14T20:10:00,pkn,3.60
2023-11-14T20:12:00,pkn,3.60
2023-11-14T20:13:00,pkn,1.20
2023-11-14T20:14:00,pkn,2.40
2023-11-14T20:16:00,pkn,9.60
2023-11-14T20:18:00,pkn,12.00
2023-11-14T20:20:00,pkn,12.00
2023-11-14T20:22:00,pkn,10.80
2023-11-14T20:23:00,pkn,6.00
2023-11-14T20:25:00,pkn,12.00
2023-11-14T20:26:00,pkn,6.00
2023-11-14T20:28:00,pkn,12.00
2023-11-14T20:30:00,pkn,10.80
2023-11-14T20:32:00,pkn,3.60
2023-11-14T20:33:00,pkn,1.20
2023-11-14T20:35:00,pkn,2.40
2023-11-14T20:37:00,pkn,2.40
2023-11-14T20:38:00,pkn,1.20
2023-11-14T20:40:00,pkn,2.40
2023-11-14T20:42:00,pkn,2.40
2023-11-14T20:43:00,pkn,1.20
2023-11-14T20:45:00,pkn,1.20
2023-11-14T20:48:00,pkn,3.60
2023-11-14T20:50:00,pkn,3.60
2023-11-14T20:51:00,pkn,1.20
2023-11-14T20:53:00,pkn,4.80
2023-11-14T20:55:00,pkn,10.80
2023-11-14T20:56:00,pkn,6.00
2023-11-14T20:58:00,pkn,13.20
2023-11-14T21:00:00,pkn,12.00
2023-11-14T21:01:00,pkn,6.00
2023-11-14T21:03:00,pkn,13.20
2023-11-14T21:05:00,pkn,4.80
2023-11-14T21:06:00,pkn,2.40
2023-11-14T21:08:00,pkn,6.00
2023-11-14T21:10:00,pkn,4.80
2023-11-14T21:12:00,pkn,3.60
2023-11-14T21:13:00,pkn,2.40
2023-11-14T21:15:00,pkn,4.80
2023-11-14T21:16:00,pkn,2.40
2023-11-14T21:18:00,pkn,3.60
2023-11-14T21:20:00,pkn,3.60
2023-11-14T21:21:00,pkn,1.20
2023-11-14T21:23:00,pkn,4.80
2023-11-14T21:25:00,pkn,3.60
2023-11-14T21:26:00,pkn,1.20
2023-11-14T21:28:00,pkn,13.20
2023-11-14T21:30:00,pkn,10.80
2023-11-14T21:32:00,pkn,12.00
2023-11-14T21:33:00,pkn,7.20
2023-11-14T21:34:00,pkn,2.40
2023-11-14T21:35:00,pkn,7.20
2023-11-14T21:36:00,pkn,4.80
2023-11-14T21:38:00,pkn,3.60
2023-11-14T21:40:00,pkn,3.60
2023-11-14T21:42:00,pkn,4.80
2023-11-14T21:43:00,pkn,1.20
2023-11-14T21:45:00,pkn,4.80
2023-11-14T21:47:00,pkn,3.60
2023-11-14T21:49:00,pkn,4.80
2023-11-14T21:51:00,pkn,3.60
2023-11-14T21:52:00,pkn,2.40
2023-11-14T21:53:00,pkn,2.40
2023-11-14T21:55:00,pkn,3.60
2023-11-14T21:56:00,pkn,2.40
2023-11-14T21:58:00,pkn,3.60
2023-11-14T21:59:00,pkn,1.20
2023-11-14T22:01:00,pkn,1.20
2023-11-14T22:02:00,pkn,1.20
2023-11-14T22:03:00,pkn,3.60
2023-11-14T22:05:00,pkn,10.80
2023-11-14T22:06:00,pkn,4.80
2023-11-14T22:08:00,pkn,10.80
2023-11-14T22:10:00,pkn,9.60
2023-11-14T22:12:00,pkn,8.40
2023-11-14T22:13:00,pkn,1.20
2023-11-14T22:14:00,pkn,1.20
2023-11-14T22:16:00,pkn,1.20
2023-11-14T22:17:00,pkn,1.20
2023-11-14T22:18:00,pkn,1.20
2023-11-14T22:20:00,pkn,1.20
2023-11-14T22:22:00,pkn,2.40
2023-11-14T22:23:00,pkn,1.20
2023-11-14T22:25:00,pkn,2.40
2023-11-14T22:27:00,pkn,1.20
2023-11-14T22:28:00,pkn,1.20
2023-11-14T22:30:00,pkn,2.40
2023-11-14T22:32:00,pkn,2.40
2023-11-14T22:33:00,pkn,1.20
2023-11-14T22:35:00,pkn,1.20
2023-11-14T22:37:00,pkn,2.40
2023-11-14T22:38:00,pkn,8.40
2023-11-14T22:40:00,pkn,10.80
2023-11-14T22:42:00,pkn,9.60
2023-11-14T22:43:00,pkn,4.80
2023-11-14T22:45:00,pkn,10.80
2023-11-14T22:47:00,pkn,3.60
2023-11-14T22:48:00,pkn,1.20
2023-11-14T22:50:00,pkn,1.20
2023-11-14T22:52:00,pkn,2.40
2023-11-14T22:53:00,pkn,1.20
2023-11-14T22:55:00,pkn,2.40
2023-11-14T22:56:00,pkn,1.20
2023-11-14T22:58:00,pkn,1.20
2023-11-14T23:00:00,pkn,2.40
2023-11-14T23:02:00,pkn,2.40
2023-11-14T23:03:00,pkn,1.20
2023-11-14T23:05:00,pkn,9.60
2023-11-14T23:06:00,pkn,4.80
2023-11-14T23:08:00,pkn,10.80
2023-11-14T23:10:00,pkn,10.80
2023-11-14T23:11:00,pkn,3.60
2023-11-14T23:12:00,pkn,6.00
2023-11-14T23:13:00,pkn,4.80
2023-11-14T23:15:00,pkn,4.80
2023-11-14T23:17:00,pkn,2.40
2023-11-14T23:20:00,pkn,2.40
2023-11-14T23:22:00,pkn,1.20
2023-11-14T23:23:00,pkn,3.60
2023-11-14T23:24:00,pkn,4.80
2023-11-14T23:26:00,pkn,9.60
2023-11-14T23:27:00,pkn,4.80
2023-11-14T23:28:00,pkn,6.00
2023-11-14T23:30:00,pkn,9.60